This is the latest recevied weather packets stored in our database for station/object KK7KRZ. If no packets are shown the sender has not sent any weather packets the latest 10 day(s).
| Time | Temp. | Humidity | Pressure | Rain* | Wind** | Luminosity | Snow |
|---|---|---|---|---|---|---|---|
| 1788140945 | 72° F | 53% | 761.2 mmHg | 0 in | - | 16 W/m² | - |
| 1788140645 | 72° F | 53% | 761.1 mmHg | 0 in | - | 18 W/m² | - |
| 1788140341 | 72° F | 53% | 761.3 mmHg | 0 in | - | 18 W/m² | - |
| 1788140036 | 72° F | 53% | 761.4 mmHg | 0 in | - | 18 W/m² | - |
| 1788139730 | 72° F | 53% | 761.2 mmHg | 0 in | - | 19 W/m² | - |
| 1788139426 | 72° F | 53% | 761.5 mmHg | 0 in | - | 19 W/m² | - |
| 1788139125 | 72° F | 52% | 761.3 mmHg | 0 in | - | 20 W/m² | - |
| 1788138820 | 72° F | 52% | 761.3 mmHg | 0 in | - | 20 W/m² | - |
| 1788138516 | 72° F | 52% | 761.5 mmHg | 0 in | - | 23 W/m² | - |
| 1788138216 | 73° F | 51% | 761.2 mmHg | 0 in | - | 21 W/m² | - |
| 1788137912 | 73° F | 52% | 761.5 mmHg | 0 in | - | 22 W/m² | - |
| 1788137607 | 72° F | 52% | 761.5 mmHg | 0 in | - | 24 W/m² | - |
| 1788137302 | 73° F | 51% | 761.6 mmHg | 0 in | - | 23 W/m² | - |
| 1788136999 | 73° F | 51% | 761.5 mmHg | 0 in | - | 30 W/m² | - |
| 1788136694 | 73° F | 51% | 761.8 mmHg | 0 in | - | 25 W/m² | - |
| 1788136390 | 73° F | 50% | 761.8 mmHg | 0 in | - | 26 W/m² | - |
| 1788136089 | 73° F | 51% | 761.8 mmHg | 0 in | - | 27 W/m² | - |
| 1788135788 | 73° F | 51% | 761.8 mmHg | 0 in | - | 28 W/m² | - |
| 1788135484 | 73° F | 50% | 761.7 mmHg | 0 in | - | 29 W/m² | - |
| 1788135179 | 74° F | 49% | 761.7 mmHg | 0 in | - | 29 W/m² | - |
| 1788134876 | 74° F | 49% | 761.8 mmHg | 0 in | - | 57 W/m² | - |
| 1788134571 | 74° F | 49% | 761.8 mmHg | 0 in | - | 33 W/m² | - |
| 1788134270 | 74° F | 49% | 761.9 mmHg | 0 in | - | 49 W/m² | - |
| 1788133970 | 74° F | 48% | 761.9 mmHg | 0 in | - | 76 W/m² | - |
| 1788133665 | 74° F | 48% | 762 mmHg | 0 in | - | 194 W/m² | - |
* Rain latest hour (hover to see other rain measurements)
** Current wind speed in m/s (hover to see current wind gust speed)